Location: Aula-Vintri
(58.3875°N, 22.4322°E)
Time: 06:49:24
(UTC+00:00)

Spot 2 Rocket - Pass Details

Date: 13 October 2019
Orbit: 758 x 771 km, 98.6° (Epoch: 16 November)

Event Time Altitude Azimuth Distance (km) Brightness Sun altitude
Exits shadow 18:15:15 47° 78° (ENE) 1,015 3.7 -21.9°
Maximum altitude 18:15:40 48° 62° (ENE) 999 3.8 -22.0°
Drops below altitude 10° 18:20:32 10° 350° (N) 2,316 6.4 -22.6°
Sets 18:22:55 0° 345° (NNW) 3,248 7.3 -22.9°
